World > North America > United States > Iowa

Hourly Norwalk, IA Regional Weather

Feedback E-mail the Weather

Quick WX

Norwalk, IA Weather Maps

°F °C°F °C
Norwalk Weather Map
UTC Time: 6/28/2022, 15:55
Your Time:

Norwalk, IA Regional Weather

Expires:202206281600;;334335
ASUS43 KDMX 281506
RWRIA 

WEATHER ROUNDUP FOR IOWA
NATIONAL WEATHER SERVICE DES MOINES IA
1000 AM CDT TUE JUN 28 2022

NOTE: "FAIR" INDICATES FEW OR NO CLOUDS BELOW 12,000 FEET WITH NO
SIGNIFICANT WEATHER AND/OR OBSTRUCTIONS TO VISIBILITY.

* - THESE STATIONS ARE NOT NWS STATIONS...THUS NOT UNDER NWS
QUALITY CONTROL.  THEY ALSO DO NOT REPORT WEATHER SUCH 
AS PRECIPITATION OR FOG.  


IAZ047>049-059>061-072>074-084-281600-
   CENTRAL IOWA
  
CITY           SKY/WX    TMP DP  RH WIND       PRES   REMARKS
AMES           SUNNY     76  52  43 SW16      30.20F                  
ANKENY *       SUNNY     75  54  46 S10       30.22F                  
BOONE *        SUNNY     75  52  43 SW9G17    30.22F                  
CHARITON *     SUNNY     75  54  46 SW14      30.24                   
DES MOINES     MOSUNNY   75  53  46 SW13      30.21F                  
GRINNELL*      SUNNY     78  54  42 SW13      30.25S                  
KNOXVILLE *    SUNNY     75  55  50 SW9G16    30.23F                  
MARSHALLTOWN   SUNNY     76  54  46 SW14      30.21F                  
NEWTON *       SUNNY     75  55  50 SW12G18   30.22F                  
PELLA *        SUNNY     75  55  50 SW9       30.24S                  
PERRY *        FAIR      77  50  38 SW16      30.20F                  
$$
 

SKY/WX - Weather  TMP - Temperature  DP - Dew Point  RH - Humidity
WIND - Wind Direction/Speed PRES - Barometric Pressure VSB - Visibility
WCI - Wind Chill Index E13G22 Wind - East Wind 13 mph/Gusts of 22 mph

Trending Headlines

Norwalk Radar Loop



Norwalk Quick Facts


National Two Day Weather Forecast


E-mail the Norwalk Weather Forecast

Voice your opinion or tell us about page issues...